This demonstration page uses our WeatherBlox Daily Observations layout. Learn more.

Left ArrowRight Arrow

Hourly Observations for July 11, 2020

Temp ( °F °C ) Dew Point ( °F °C ) Humidity (%) Winds ( mph kmh ) Pressure ( in mb ) Visibility ( mi km ) Precip ( " mm )
12:53 am 00:53 Clear 75 23.9 68 20 79 79 NNW 8 13 30.03 1017 10 16 0.00 0.00
1:53 am 01:53 Clear 67 19.4 62 16.7 84 84 ENE 15 24 30.05 1018 10 16 0.00 0.00
2:53 am 02:53 Partly Cloudy 66 18.9 60 15.6 81 81 E 10 17 30.04 1017 10 16 0.00 0.00
3:53 am 03:53 Mostly Cloudy 66 18.9 60 15.6 81 81 ENE 5 7 30.05 1018 10 16 0.00 0.00
4:53 am 04:53 Clear 67 19.4 59 15 76 76 SE 5 7 30.00 1016 10 16 0.00 0.00
5:53 am 05:53 Clear 64 17.8 60 15.6 87 87 SSW 5 7 29.98 1015 10 16 0.00 0.00
6:53 am 06:53 Mostly Sunny 66 18.9 60 15.6 81 81 SSW 9 15 29.96 1014 10 16 0.00 0.00
7:53 am 07:53 Mostly Cloudy 71 21.7 60 15.6 68 68 SW 7 11 29.98 1015 10 16 0.00 0.00
8:53 am 08:53 Mostly Sunny 74 23.3 64 17.8 71 71 NNW 10 17 30.03 1017 10 16 0.00 0.00
9:53 am 09:53 Mostly Sunny 77 25 63 17.2 62 62 NNW 13 20 30.05 1018 10 16 0.00 0.00
10:53 am 10:53 Sunny 79 26.1 63 17.2 58 58 N 15 24 30.06 1018 10 16 0.00 0.00
11:53 am 11:53 Sunny 84 28.9 63 17.2 49 49 N 14 22 30.05 1018 10 16 0.00 0.00
12:53 pm 12:53 Sunny 86 30 66 18.9 51 51 N 15 24 30.04 1017 10 16 0.00 0.00
1:53 pm 13:53 Sunny 86 30 68 20 55 55 N 16 26 30.04 1017 10 16 0.00 0.00
2:53 pm 14:53 Sunny 87 30.6 67 19.4 51 51 N 16 26 30.03 1017 10 16 0.00 0.00
3:53 pm 15:53 Sunny 87 30.6 67 19.4 51 51 NNE 15 24 30.01 1016 10 16 0.00 0.00
4:53 pm 16:53 Sunny 87 30.6 65 18.3 48 48 NNE 13 20 30.00 1016 10 16 0.00 0.00
5:53 pm 17:53 Sunny 86 30 67 19.4 53 53 N 12 19 30.00 1016 10 16 0.00 0.00
6:53 pm 18:53 Sunny 84 28.9 67 19.4 57 57 N 8 13 29.99 1016 10 16 0.00 0.00
7:53 pm 19:53 Sunny 81 27.2 65 18.3 58 58 N 6 9 30.01 1016 10 16 0.00 0.00
8:53 pm 20:53 Sunny 74 23.3 63 17.2 69 69 NE 5 7 30.01 1016 10 16 0.00 0.00
9:53 pm 21:53 Clear 71 21.7 64 17.8 79 79 NNE 3 6 30.01 1016 10 16 0.00 0.00
10:53 pm 22:53 Clear 68 20 63 17.2 84 84 N 3 6 30.01 1016 10 16 0.00 0.00
11:53 pm 23:53 Clear 68 20 62 16.7 81 81 Calm 30.01 1016 10 16 0.00 0.00

Powered by AerisWeather